Location: Street
(51.1247°N, 2.7429°W)
Time: 01:15:16
(UTC+00:00)

COSMOS 2251 DEB - Visible Passes

Search period start: 07 December 2023 00:00
Search period end: 17 December 2023 00:00
Orbit: 683 x 708 km, 74.0° (Epoch: 06 December)

Date Brightness Start Highest point End Pass type
(mag) Time Alt. Az. Time Alt. Az. Time Alt. Az.
08 Dec ? 07:13:09 10° NNE 07:14:57 12° NE 07:16:45 10° ENE visible
10 Dec ? 06:55:53 10° N 06:58:04 13° NE 07:00:15 10° ENE visible
12 Dec ? 06:38:36 10° N 06:41:05 14° NE 06:43:35 10° ENE visible
13 Dec ? 07:19:19 10° N 07:23:33 27° NE 07:27:46 10° ESE visible
14 Dec ? 06:21:16 10° N 06:24:02 15° NE 06:26:47 10° ENE visible
15 Dec ? 07:02:03 10° N 07:06:24 30° NE 07:10:43 10° ESE visible
16 Dec ? 06:03:52 10° N 06:06:53 16° NE 06:09:52 10° E visible
